| time (UTC) | temp F | wind direction | speed knots | gust knots | rain 1hr in | rain 24hr in | rain mn in | humidity % | barometer mb |
| 20260504110658 | 49 | 0 | 0.0 | 0.0 | 181.76 | 0.00 | 0.00 | ||
| 20260504110158 | 50 | 0 | 0.0 | 0.0 | 181.76 | 0.00 | 0.00 | ||
| 20260504100158 | 49 | 0 | 0.0 | 0.0 | 181.76 | 0.00 | 0.00 | ||
| 20260504081658 | 49 | 0 | 0.0 | 0.0 | 181.76 | 0.00 | 0.00 | ||
| 20260504081158 | 49 | 0 | 0.0 | 0.0 | 181.76 | 0.00 | 0.00 | ||
| 20260504080659 | 51 | 0 | 0.0 | 0.0 | 181.76 | 0.00 | 0.00 | ||
| 20260504080158 | 51 | 0 | 0.0 | 0.0 | 181.76 | 0.00 | 0.00 | ||
| 20260504015157 | 50 | 0 | 0.0 | 0.0 | 181.76 | 0.00 | 0.00 | ||
| 20260504014658 | 51 | 0 | 0.0 | 0.0 | 181.76 | 0.00 | 0.00 | ||
| 20260504014157 | 51 | 0 | 0.0 | 0.0 | 181.76 | 0.00 | 0.00 | ||
| 20260503202158 | 63 | 210 | 2.6 | 5.2 | 181.76 | 0.00 | 0.00 | ||
| 20260503180659 | 60 | 255 | 4.3 | 7.8 | 181.76 | 0.00 | 0.00 | ||
| 20260503180159 | 60 | 352 | 2.6 | 5.2 | 181.76 | 0.00 | 0.00 | ||
| 20260503175658 | 59 | 318 | 4.3 | 7.8 | 181.76 | 0.00 | 0.00 | ||
| 20260503175159 | 58 | 283 | 2.6 | 6.1 | 181.76 | 0.00 | 0.00 | ||
| 20260503174159 | 58 | 267 | 5.2 | 9.6 | 181.76 | 0.00 | 0.00 | ||
| 20260503173659 | 58 | 328 | 0.9 | 2.6 | 181.76 | 0.00 | 0.00 | ||
| 20260503173159 | 57 | 340 | 2.6 | 7.0 | 181.76 | 0.00 | 0.00 | ||
| 20260503172701 | 59 | 304 | 2.6 | 6.1 | 181.76 | 0.00 | 0.00 | ||
| 20260503172200 | 56 | 322 | 2.6 | 6.1 | 181.76 | 0.00 | 0.00 | ||
| 20260503171659 | 56 | 0 | 0.0 | 0.0 | 181.76 | 0.00 | 0.00 | ||
| 20260503170659 | 55 | 345 | 7.0 | 9.6 | 181.76 | 0.00 | 0.00 | ||
| 20260503170159 | 55 | 346 | 0.9 | 5.2 | 181.76 | 0.00 | 0.00 | ||
| 20260503160159 | 53 | 332 | 3.5 | 7.0 | 181.76 | 0.00 | 0.00 | ||
| 20260503150659 | 50 | 0 | 0.0 | 0.0 | 181.76 | 0.00 | 0.00 | ||
| 20260503150200 | 49 | 314 | 1.7 | 5.2 | 181.76 | 0.00 | 0.00 | ||
| 20260503140159 | 46 | 0 | 0.0 | 0.0 | 181.76 | 0.00 | 0.00 | ||
| 20260503131159 | 44 | 339 | 7.0 | 9.6 | 181.76 | 0.00 | 0.00 | ||
| 20260503130659 | 44 | 325 | 0.9 | 4.3 | 181.76 | 0.00 | 0.00 | ||
| 20260503130200 | 48 | 339 | 5.2 | 7.0 | 181.76 | 0.00 | 0.00 | ||
| 20260503120159 | 43 | 246 | 3.5 | 5.2 | 181.76 | 0.00 | 0.00 |